This is the latest recevied weather packets stored in our database for station/object K0CVS. If no packets are shown the sender has not sent any weather packets the latest 10 day(s).
| Time | Temp. | Humidity | Pressure | Rain* | Wind** | Luminosity | Snow |
|---|---|---|---|---|---|---|---|
| 1777569910 | 18.89° C | 43% | 1018.3 hPa | 0 mm | - | 759 W/m² | - |
| 1777569606 | 18.89° C | 43% | 1018.4 hPa | 0 mm | - | 708 W/m² | - |
| 1777569303 | 18.33° C | 46% | 1018.5 hPa | 0 mm | - | 723 W/m² | - |
| 1777568999 | 18.33° C | 44% | 1018.4 hPa | 0 mm | - | 547 W/m² | - |
| 1777568696 | 18.33° C | 46% | 1018.6 hPa | 0 mm | - | 577 W/m² | - |
| 1777568393 | 17.78° C | 47% | 1018.7 hPa | 0 mm | - | 731 W/m² | - |
| 1777568090 | 17.78° C | 48% | 1018.8 hPa | 0 mm | - | 762 W/m² | - |
| 1777567787 | 17.78° C | 45% | 1018.9 hPa | 0 mm | - | 460 W/m² | - |
| 1777567483 | 17.78° C | 45% | 1018.8 hPa | 0 mm | - | 301 W/m² | - |
| 1777567181 | 17.78° C | 45% | 1018.9 hPa | 0 mm | - | 656 W/m² | - |
| 1777566879 | 17.78° C | 48% | 1018.8 hPa | 0 mm | - | 651 W/m² | - |
| 1777566576 | 17.22° C | 47% | 1018.9 hPa | 0 mm | - | 642 W/m² | - |
| 1777566273 | 17.22° C | 47% | 1019 hPa | 0 mm | - | 633 W/m² | - |
| 1777565971 | 16.67° C | 49% | 1019.1 hPa | 0 mm | - | 629 W/m² | - |
| 1777565666 | 16.67° C | 50% | 1019.1 hPa | 0 mm | - | 581 W/m² | - |
| 1777565363 | 16.67° C | 50% | 1019.2 hPa | 0 mm | - | 79 W/m² | - |
| 1777565059 | 15.56° C | 52% | 1019.4 hPa | 0 mm | - | 164 W/m² | - |
| 1777564755 | 15.56° C | 52% | 1019.3 hPa | 0 mm | - | 162 W/m² | - |
| 1777564450 | 15.56° C | 52% | 1019.5 hPa | 0 mm | - | 150 W/m² | - |
| 1777564146 | 15.56° C | 54% | 1019.4 hPa | 0 mm | - | 158 W/m² | - |
| 1777563842 | 15.56° C | 53% | 1019.5 hPa | 0 mm | - | 189 W/m² | - |
| 1777563539 | 15.56° C | 57% | 1019.4 hPa | 0 mm | - | 199 W/m² | - |
| 1777563238 | 15° C | 57% | 1019.2 hPa | 0 mm | - | 182 W/m² | - |
| 1777562935 | 15° C | 56% | 1019.4 hPa | 0 mm | - | 184 W/m² | - |
| 1777562630 | 14.44° C | 58% | 1019.4 hPa | 0 mm | - | 146 W/m² | - |
* Rain latest hour (hover to see other rain measurements)
** Current wind speed in m/s (hover to see current wind gust speed)